Wind_Speed
18 20 19 15 15 16 14 11 9 8 8 6 6 5 4 4 4 4 4 4 3 6 6 5 5 4 6 6 5 8 8 8 8 9 10 8 9 8 8 10 14 9 7
20 21 19 15 17 16 13 10 9 7 8 6 5 5 5 6 6 5 5 5 5 6 6 5 5 5 3 5 6 7 6 6 6 6 8 11 11 9 7 9 8 13 13
21 20 18 16 18 15 13 10 8 7 7 7 5 5 8 6 5 5 4 5 6 6 5 5 6 5 4 5 7 2 4 7 6 3 2 7 8 7 8 7 10 9 11
17 18 18 18 17 15 13 11 9 9 7 7 7 6 7 7 5 5 5 5 4 4 5 6 6 5 4 5 3 2 3 9 8 8 8 10 10 7 6 6 7 9 9
18 16 18 19 17 15 13 12 8 10 7 6 7 4 6 6 5 4 4 4 4 4 4 4 5 4 4 4 4 4 5 9 7 5 6 9 6 7 7 7 7 6 7
18 15 17 17 17 16 15 10 8 9 7 6 7 6 4 5 4 3 4 4 2 3 3 3 7 6 5 5 6 4 8 9 5 7 7 8 7 9 7 7 7 7 7
17 18 21 17 16 15 13 10 9 10 8 8 8 7 5 5 4 5 2 4 4 4 3 3 5 7 5 5 5 6 9 9 7 6 9 8 10 8 7 6 5 5 6
18 19 20 17 17 18 13 12 11 11 10 10 10 6 8 5 6 6 4 6 6 5 4 4 4 6 6 5 5 7 9 10 7 5 10 7 9 8 7 6 5 4 4
17 19 15 16 18 16 14 14 11 13 12 11 10 9 8 10 8 8 6 7 8 7 6 5 6 7 9 9 8 9 9 11 9 6 9 8 9 8 6 5 5 5 5
17 15 14 13 19 18 16 16 13 17 14 15 15 11 12 11 12 11 9 8 8 8 7 7 8 9 11 11 11 11 10 12 13 11 7 13 11 10 8 7 7 7 7
17 16 17 17 15 15 17 19 17 17 16 17 17 16 13 14 13 13 12 11 10 9 9 10 10 10 12 14 14 14 13 14 16 13 10 12 12 12 11 10 9 9 8
22 22 21 21 18 14 15 16 19 20 22 21 20 19 16 16 14 12 12 11 13 13 13 12 11 12 15 15 15 14 16 15 18 16 16 17 16 14 14 13 12 11 11
25 23 23 21 20 18 22 21 21 19 22 22 22 20 15 13 15 14 18 16 15 16 17 16 16 17 17 16 17 16 14 17 19 18 16 19 19 17 17 16 16 15 15
23 24 24 24 23 24 23 20 22 19 21 21 20 20 18 15 16 19 19 19 18 17 15 15 17 14 16 17 19 18 19 16 19 19 20 22 22 21 20 20 20 20 19
24 23 26 26 26 25 24 23 21 21 20 22 19 20 23 21 19 21 22 21 20 19 19 18 18 20 19 19 20 22 22 23 22 22 23 24 25 26 24 24 24 24 24
23 28 26 27 27 27 27 25 25 23 22 21 22 22 25 26 26 25 25 25 24 24 23 21 22 23 23 23 25 23 26 28 27 27 27 27 28 30 30 27 28 28 28
28 26 28 27 29 29 29 27 26 24 24 26 27 26 28 29 30 29 29 29 29 27 27 24 24 26 26 24 28 28 28 28 30 31 32 33 33 34 35 34 32 31 32
26 25 26 28 29 31 31 29 29 27 26 28 28 28 30 31 31 32 33 34 33 29 30 29 28 28 30 30 31 31 31 31 33 34 35 35 36 38 39 40 39 38 37
21 28 27 29 31 31 32 34 30 30 30 30 29 30 32 32 33 34 37 38 34 31 32 33 33 32 33 33 34 33 34 34 36 35 38 39 40 40 41 42 42 42 42
13 3 23 27 33 33 32 32 32 29 31 31 31 33 34 33 34 34 37 37 35 32 34 33 34 33 35 34 33 31 35 37 39 41 42 42 42 44 45 45 44 44 45
16 10 11 4 25 34 34 31 30 32 32 30 30 31 33 32 32 33 35 37 36 36 38 38 37 37 37 37 28 28 36 37 40 42 42 45 47 46 44 43 45 46 47
23 21 15 12 13 8 28 33 31 32 28 31 30 32 33 34 34 34 36 39 39 35 36 39 37 31 32 28 21 9 7 17 33 39 41 44 42 42 44 47 48 47 47
25 24 22 18 12 16 2 19 22 17 18 20 21 25 27 29 32 35 37 38 36 36 34 33 34 32 28 26 30 16 3 6 2 10 28 35 34 36 40 42 44 45 46
19 21 22 22 23 19 16 13 6 11 16 21 23 23 25 27 29 30 33 37 38 37 35 34 32 34 30 29 22 36 36 21 4 5 12 19 23 33 37 41 44 45 40
18 21 22 22 24 21 18 16 15 14 14 15 15 17 19 20 21 22 29 36 36 37 38 35 30 29 30 30 30 26 26 31 31 12 12 13 22 32 38 39 39 41 41
18 18 20 22 23 22 21 20 19 18 17 17 17 17 18 19 19 19 20 23 30 33 36 38 37 32 32 30 30 30 28 13 12 9 11 14 16 31 30 36 43 45 44
Wind_Direction
167 170 171 168 174 157 152 151 144 141 140 147 146 136 130 127 110 112 94 92 78 84 87 97 119 117 98 101 102 91 95 98 101 86 75 93 94 94 81 76 67 92 85
168 171 173 171 168 157 156 153 150 142 158 151 147 149 153 120 124 108 104 95 89 101 85 96 119 133 105 123 124 100 94 116 120 98 82 86 93 93 84 75 79 80 85
162 171 169 173 164 162 158 159 153 151 163 167 153 160 140 128 116 116 110 101 88 94 87 100 107 129 115 107 117 128 101 127 118 82 161 121 111 93 90 96 84 91 88
166 173 168 171 169 165 163 163 159 166 168 170 179 159 140 129 107 112 99 104 121 99 95 110 106 128 114 138 160 133 131 133 111 82 125 126 111 105 97 93 105 103 96
168 169 174 173 172 169 169 167 163 172 182 180 178 159 153 140 138 134 120 128 131 116 102 116 123 147 140 148 179 221 150 141 128 127 118 145 126 115 110 104 103 104 105
171 174 173 180 180 177 175 174 169 177 181 168 165 169 173 186 168 142 145 146 148 152 151 163 183 153 182 202 188 212 157 150 130 139 153 147 120 132 126 116 110 105 102
170 181 184 185 187 185 182 187 180 187 186 178 185 194 175 162 187 204 198 189 194 210 211 204 201 197 207 216 195 218 178 166 155 161 186 201 159 152 147 139 140 130 121
172 170 175 185 186 184 195 192 192 200 200 199 199 201 204 189 221 224 234 211 218 205 214 221 218 217 219 226 217 224 199 188 173 142 179 197 171 167 162 153 153 161 144
183 174 180 191 192 194 203 203 206 196 202 200 204 204 206 204 209 220 227 223 209 211 226 240 234 225 219 219 221 228 215 199 196 187 189 229 204 182 179 175 176 175 171
177 184 187 194 197 199 205 209 210 204 206 208 216 220 219 222 230 229 226 226 225 227 237 253 253 234 226 224 225 227 227 214 204 199 219 231 212 196 197 199 206 207 200
188 200 203 198 200 208 211 218 213 212 208 216 223 230 228 226 235 233 240 245 236 242 251 258 256 239 229 227 228 229 228 219 210 211 213 222 227 212 210 214 220 224 226
198 202 207 205 202 203 208 206 210 211 214 218 222 228 234 234 239 233 241 245 241 252 257 258 253 239 238 235 232 231 235 226 211 214 221 232 235 223 219 222 227 232 235
205 203 205 208 205 204 209 214 210 215 216 221 226 231 232 238 222 241 234 233 246 260 259 252 249 241 241 237 232 234 239 235 221 221 226 232 239 231 227 229 232 235 237
213 212 210 210 208 206 209 216 215 220 219 222 225 226 229 228 224 231 233 251 257 252 255 243 241 246 240 234 229 242 236 237 227 233 231 236 239 236 231 233 235 238 239
222 219 217 213 215 215 214 218 221 223 226 227 231 229 233 237 231 226 243 252 249 241 246 244 245 241 240 236 237 242 240 241 240 242 239 240 241 244 239 236 236 238 240
235 226 222 217 218 219 219 219 221 226 227 230 230 230 231 233 234 236 242 244 245 241 246 247 241 243 249 245 240 248 242 242 242 243 242 243 246 247 248 242 242 242 242
228 230 224 221 218 218 221 224 228 225 224 229 232 232 232 233 236 238 241 243 243 240 244 245 241 243 247 246 245 246 247 248 249 250 249 248 247 250 253 250 245 244 244
232 222 218 218 221 220 220 223 227 230 230 232 236 237 237 238 241 240 241 243 244 242 242 243 242 242 245 244 246 247 249 251 252 252 253 254 254 253 253 254 253 252 248
247 235 226 220 224 224 225 224 224 229 233 237 241 244 244 242 243 242 245 248 248 244 241 242 243 242 245 246 248 253 252 253 253 253 253 253 254 254 254 258 257 256 257
42 256 241 229 222 227 228 225 225 228 234 240 244 248 251 251 249 248 250 254 255 251 250 248 248 249 249 250 250 250 255 256 257 257 258 258 255 255 256 258 259 257 257
37 32 39 16 238 221 216 219 222 225 231 238 244 251 257 259 258 255 254 256 255 252 252 250 249 250 250 248 251 256 257 258 259 257 259 260 256 254 254 255 257 258 260
39 34 22 12 24 247 226 222 223 228 237 243 252 257 260 262 262 259 255 254 253 248 247 249 245 243 248 246 237 250 270 273 260 256 254 256 256 255 254 256 256 256 259
37 29 31 28 29 40 264 237 230 236 249 256 258 264 269 271 268 264 262 258 253 250 246 246 245 240 246 249 236 226 235 236 332 263 246 246 249 250 253 255 256 259 260
40 50 48 45 43 37 33 36 340 281 278 279 283 286 290 288 281 275 268 259 257 254 251 248 247 245 239 243 244 233 238 251 239 297 268 260 259 256 252 255 256 256 253
51 53 52 50 46 40 37 35 30 16 358 345 339 328 323 316 310 304 287 268 259 256 255 254 249 247 242 241 240 241 237 245 255 255 269 278 269 265 264 261 257 252 254
56 58 55 52 48 44 43 41 37 28 17 9 3 355 351 349 347 346 341 297 277 273 260 258 254 257 250 246 246 246 241 237 244 243 254 257 261 270 265 264 260 256 256
Height
790 791 794 797 799 800 802 803 803 804 804 806 806 807 807 807 807 808 807 807 807 807 807 807 807 806 806 807 807 807 807 807 807 807 806 805 806 806 806 805 803 802 803
786 790 793 795 798 800 802 802 803 803 805 806 806 807 806 808 808 809 808 807 807 807 807 807 806 807 807 807 807 807 807 807 807 807 807 806 806 806 806 805 805 803 802
786 789 792 795 797 799 801 802 802 804 805 805 805 806 806 808 808 808 809 808 808 807 807 807 807 807 807 807 807 807 807 806 806 807 806 806 806 805 805 805 805 804 803
786 789 791 794 797 799 800 802 802 804 805 805 805 805 805 806 807 808 808 808 808 807 807 806 807 808 808 808 808 807 806 805 805 806 805 805 806 807 806 806 806 804 803
786 788 791 794 796 798 800 801 802 803 804 804 804 805 805 806 808 808 807 807 807 807 807 807 807 808 808 808 808 806 805 805 804 806 806 805 805 806 806 806 806 805 803
786 787 790 793 795 797 799 800 801 803 804 804 804 804 805 806 807 807 807 807 807 807 806 807 806 806 807 807 806 805 804 804 804 805 806 805 804 804 805 805 805 805 804
785 787 789 791 793 795 797 799 801 802 803 803 803 803 804 804 806 807 806 805 806 805 805 805 804 805 806 806 806 805 804 804 803 804 803 803 803 804 804 804 804 804 803
783 786 788 790 792 794 796 797 799 801 801 802 802 803 803 803 804 804 804 804 804 804 804 805 804 805 806 806 805 805 804 804 803 803 803 804 803 803 803 803 803 804 804
782 784 786 788 790 792 794 796 797 799 800 801 801 802 802 802 802 802 802 802 803 803 804 803 803 803 803 803 803 804 803 803 803 803 803 803 802 803 803 803 803 803 803
781 781 783 785 787 789 791 793 795 797 798 798 799 800 800 800 800 800 800 801 801 802 802 802 801 801 801 801 801 801 801 801 801 801 801 801 801 801 800 800 800 800 799
780 779 780 782 784 786 789 790 792 794 795 795 796 797 798 798 798 798 799 800 800 800 800 799 799 799 799 799 798 797 796 797 798 799 799 799 799 798 798 797 798 799 799
775 776 777 779 781 784 786 787 789 790 791 792 793 794 795 795 796 797 798 798 798 797 797 797 797 796 795 795 794 794 794 793 793 794 794 795 796 796 796 795 795 796 796
770 772 776 777 779 780 781 783 785 786 788 790 791 792 792 793 794 794 794 794 795 795 794 793 792 791 791 791 791 791 791 791 790 790 790 790 791 791 792 792 792 792 792
768 769 772 775 776 777 779 779 781 783 785 786 788 789 790 791 790 790 789 790 791 791 789 788 788 787 786 786 787 787 787 787 786 786 786 786 786 786 787 787 787 787 787
765 767 768 770 772 774 776 777 778 779 781 783 785 786 787 788 788 787 787 787 785 783 783 783 783 783 782 782 783 783 783 783 782 782 782 781 781 781 781 781 781 782 781
761 762 764 767 769 772 772 774 775 777 779 780 781 781 781 781 782 782 782 780 779 778 778 778 778 778 778 779 778 779 778 778 778 776 776 776 776 775 775 776 775 775 775
752 755 758 761 765 767 769 770 771 773 774 775 775 776 777 777 777 777 776 775 773 774 775 775 774 774 774 775 773 772 772 772 772 771 771 770 769 768 768 767 767 767 767
750 751 753 756 758 761 763 765 767 769 770 769 770 770 770 771 772 772 770 768 768 771 771 770 770 770 769 769 767 767 767 766 764 763 763 762 762 760 759 758 758 758 758
748 748 750 751 751 753 756 759 761 764 765 765 766 765 765 765 765 766 766 764 766 767 767 766 765 765 763 763 763 762 761 759 757 755 752 751 751 751 750 748 749 748 749
746 745 747 748 747 749 751 756 759 760 760 761 761 761 761 761 762 763 764 764 765 767 765 765 764 762 761 759 759 756 753 752 750 748 746 744 742 742 742 741 741 740 739
746 745 745 746 747 746 747 751 754 755 756 758 758 759 760 761 761 761 761 760 759 759 757 757 757 756 754 753 756 751 748 745 741 737 737 734 732 732 733 732 731 730 729
748 747 746 746 746 745 747 746 748 749 752 754 755 756 756 756 755 755 753 751 751 751 751 750 750 749 747 749 749 750 746 738 729 726 726 724 723 723 721 720 720 720 719
750 749 748 747 747 746 746 748 750 751 752 751 751 750 750 751 750 749 748 747 746 746 745 744 744 745 743 743 743 745 742 735 727 718 716 716 716 714 713 712 710 710 710
757 755 753 751 749 748 748 749 751 752 751 750 750 749 748 747 744 743 741 741 740 739 738 738 737 736 736 733 735 732 730 726 727 722 710 711 711 707 704 702 702 700 700
760 758 756 754 752 751 750 750 750 751 751 749 748 747 745 744 742 739 737 734 733 733 732 731 730 728 727 725 723 723 721 720 720 717 710 701 703 700 698 695 693 692 691
764 762 760 758 757 756 754 754 753 752 750 748 747 745 743 741 739 736 733 730 728 727 725 723 722 721 718 717 716 714 713 709 706 709 705 699 694 690 692 689 685 683 682